Regional Weather Roundup
Issued by NWS

Home | Current Version | Previous Version | Graphics & Text | Print | Product List | Glossary On
Versions: 1 2 3 4 5 6 7 8 9 10 11 12 13 14 15 16 17 18 19 20 21 22 23 24 25 26 27 28 29 30 31 32 33 34 35 36 37 38 39 40 41 42 43 44 45 46 47 48 49 50
000
ASUS43 KLMK 181202
RWRKY
KENTUCKY REGIONAL WEATHER ROUNDUP
NATIONAL WEATHER SERVICE LOUISVILLE KY
800 AM EDT FRI AUG 18 2017

NOTE "FAIR" INDICATES FEW OR NO CLOUDS BELOW 12,000 FEET
WITH NO SIGNIFICANT WEATHER AND/OR OBSTRUCTIONS TO VISIBILITY.

KYZ001>023-026-027-061>063-070>075-181300-
WESTERN AND SOUTH CENTRAL KENTUCKY

CITY           SKY/WX    TMP DP  RH WIND       PRES   REMARKS
PADUCAH        PTCLDY    68  65  90 W6        29.95R
HENDERSON      CLEAR     67  66  97 SW3       29.94R
OWENSBORO      CLEAR     70  68  93 W5        29.94R
HOPKINSVILLE   CLEAR     72  72  99 SW7       29.96R
BOWLING GREEN  CLEAR     75  73  93 SW5       29.96R
GLASGOW        PTSUNNY   73  73 100 W5        29.96R
$$

KYZ024-025-028>034-038-045-046-053-181300-
NORTH CENTRAL KENTUCKY

CITY           SKY/WX    TMP DP  RH WIND       PRES   REMARKS
LOUISVILLE/SDF MOSUNNY   74  71  91 SW6       29.90S
LOUISVILLE/LOU SUNNY     73  73 100 SW3       29.91S
FORT KNOX      SUNNY     72  71  99 CALM      29.91S
$$

KYZ035>037-039>044-047>052-055>060-089>105-181300-
NORTHEAST KENTUCKY

CITY           SKY/WX    TMP DP  RH WIND       PRES   REMARKS
LEXINGTON      CLOUDY    74  70  87 W8        29.93R
COVINGTON      MOSUNNY   73  73 100 SW5       29.89S
FRANKFORT      MOSUNNY   74  70  87 W3        29.91R
$$

KYZ054-064>069-076>088-106>120-181300-
SOUTHEAST KENTUCKY

CITY           SKY/WX    TMP DP  RH WIND       PRES   REMARKS
JACKSON        FOG       72  71  97 CALM      29.95S VSB 1/2
LONDON         CLOUDY    73  71  93 SW6       29.96S
SOMERSET       NOT AVBL
MIDDLESBORO    CLOUDY    73  73 100 CALM      29.98S
MONTICELLO     PTSUNNY   74  73  97 NW9       29.97S
$$





USA.gov is the U.S. government's official web portal to all federal, state and local government web resources and services.